Regional Weather Roundup
Issued by NWS

Home | Current Version | Previous Version | Text Only | Print | Product List | Glossary Off
Versions: 1 2 3 4 5 6 7 8 9 10 11 12 13 14 15 16 17 18 19 20 21 22 23 24 25 26 27 28 29 30 31 32 33 34 35 36 37 38 39 40 41 42 43 44 45 46 47 48 49 50

000
ASUS43 KFSD 300502
RWRSD

WEATHER ROUNDUP FOR SOUTH DAKOTA
NATIONAL WEATHER SERVICE SIOUX FALLS SD
1200 AM CDT SAT APR 30 2016

NOTE: "FAIR" INDICATES FEW OR NO CLOUDS BELOW 12,000 FEET WITH NO
SIGNIFICANT WEATHER AND/OR OBSTRUCTIONS TO VISIBILITY.


SDZ001>005-009-010-012>017-300600-
NORTHWEST AND NORTH CENTRAL SOUTH DAKOTA

CITY           SKY/WX    TMP DP  RH WIND       PRES   REMARKS
BUFFALO          N/A     40  33  76 E3        30.01F
FAITH            N/A     41  35  79 CALM      30.06F
MOBRIDGE       CLOUDY    43  39  86 SE6       30.07S
$$

SDZ012>016-024>037-041>051-057-063-072>074-300600-
SOUTHWEST AND SOUTH CENTRAL SOUTH DAKOTA

CITY           SKY/WX    TMP DP  RH WIND       PRES   REMARKS
RAPID CTY ARPT CLOUDY    41  37  86 N6        30.05S
PIERRE         CLOUDY    41  37  86 NE6       30.04F
CUSTER         CLOUDY    31  28  89 NE17G32   29.98S WCI  19
ELLSWORTH AFB  CLOUDY    42  38  86 N5        30.04
PHILIP         MOCLDY    41  37  86 NE7       30.04S
PINE RIDGE     CLOUDY    37  35  92 NE8       29.99F FOG
WINNER         CLOUDY    44  39  82 NE6       30.01F
$$

SDZ004>011-016>023-039-040-300600-
NORTHEAST SOUTH DAKOTA

CITY           SKY/WX    TMP DP  RH WIND       PRES   REMARKS
ABERDEEN       CLOUDY    43  38  82 CALM      30.10S
WATERTOWN      CLEAR     39  35  86 CALM      30.07S
BROOKINGS      CLEAR     42  38  85 NE3       30.07R
SISSETON         N/A     41  37  86 NW3       30.09S
$$

SDZ017-020-022-023-036>040-048>070-300600-
SOUTHEAST SOUTH DAKOTA

CITY           SKY/WX    TMP DP  RH WIND       PRES   REMARKS
SIOUX FALLS    CLOUDY    45  40  82 E7        30.05F
HURON          CLOUDY    44  41  89 NE5       30.07F
MITCHELL       CLOUDY    46  42  86 CALM      30.07S
YANKTON        CLOUDY    45  39  81 NE12      30.02F
$$

ABBREVIATIONS USED IN REMARKS
   TC - TEMPERATURE IN CELSIUS
  WCI - WIND CHILL INDEX
   HX - HEAT INDEX
  VSB - VISIBILITY





USA.gov is the U.S. government's official web portal to all federal, state and local government web resources and services.